CW5619 Weather Reports


time (UTC)temp
F
wind
direction
speed
knots
gust
knots
rain 1hr
in
rain 24hr
in
rain mn
in
humidity
%
barometer
mb
20260507040403 68 126 0.0 1.7 0.00 0.00 0.00 27 1014.3
20260507035903 68 126 0.9 1.7 0.00 0.00 0.00 28 1014.2
20260507035403 69 142 0.9 1.7 0.00 0.00 0.00 26 1014.2
20260507034903 70 155 0.0 0.9 0.00 0.00 0.00 25 1014.1
20260507033903 71 139 0.0 0.9 0.00 0.00 0.00 24 1013.9
20260507033403 71 137 0.0 1.7 0.00 0.00 0.00 23 1013.8
20260507032903 71 191 0.9 1.7 0.00 0.00 0.00 23 1013.8
20260507031402 72 274 0.0 0.9 0.00 0.00 0.00 23 1013.7
20260507030904 72 274 0.0 0.9 0.00 0.00 0.00 22 1013.6
20260507030404 72 293 0.0 0.9 0.00 0.00 0.00 22 1013.5
20260507025903 73 287 0.0 0.9 0.00 0.00 0.00 21 1013.4
20260507025403 73 287 0.0 1.7 0.00 0.00 0.00 21 1013.4
20260507024403 74 305 0.0 2.6 0.00 0.00 0.00 20 1013.2
20260507023903 74 267 0.9 2.6 0.00 0.00 0.00 20 1013.2
20260507023403 74 288 0.9 2.6 0.00 0.00 0.00 19 1013.3
20260507022903 75 193 0.9 2.6 0.00 0.00 0.00 19 1013.2
20260507022403 75 351 0.9 2.6 0.00 0.00 0.00 19 1013.2
20260507021903 75 260 0.9 4.3 0.00 0.00 0.00 18 1013.1
20260507021404 76 271 0.9 4.3 0.00 0.00 0.00 18 1013.1
20260507020903 76 283 0.9 4.3 0.00 0.00 0.00 18 1013.1
20260507020403 76 236 0.9 4.3 0.00 0.00 0.00 18 1013.1
20260507015904 76 261 0.9 4.3 0.00 0.00 0.00 18 1013.0
20260507015403 77 197 1.7 4.3 0.00 0.00 0.00 18 1013.0
20260507013403 77 166 0.9 4.3 0.00 0.00 0.00 17 1013.0
20260507012903 77 231 1.7 4.3 0.00 0.00 0.00 17 1012.9
20260507011903 78 174 0.9 6.1 0.00 0.00 0.00 17 1012.9
20260507011402 78 223 2.6 7.0 0.00 0.00 0.00 17 1013.0
20260507010903 78 274 0.9 7.0 0.00 0.00 0.00 18 1012.9
20260507010403 78 240 2.6 6.1 0.00 0.00 0.00 18 1012.9
20260507005403 79 215 1.7 8.7 0.00 0.00 0.00 17 1013.0
20260507004903 79 220 1.7 8.7 0.00 0.00 0.00 17 1012.9
20260507003903 79 249 2.6 7.0 0.00 0.00 0.00 17 1012.9
20260507003404 79 250 1.7 6.1 0.00 0.00 0.00 18 1012.8
20260507002903 79 230 1.7 7.0 0.00 0.00 0.00 18 1012.8
20260507002403 80 189 2.6 7.0 0.00 0.00 0.00 17 1012.8
20260507001903 80 144 1.7 7.8 0.00 0.00 0.00 18 1012.9
20260507001403 80 170 1.7 7.8 0.00 0.00 0.00 18 1012.8
20260507000903 80 298 1.7 7.0 0.00 0.00 0.00 18 1012.9
20260507000405 81 225 2.6 4.3 0.00 0.00 0.00 18 1012.9
20260506235903 80 237 2.6 7.8 0.00 0.00 0.00 18 1012.9
20260506235403 80 262 2.6 7.8 0.00 0.00 0.00 18 1012.8
20260506234903 80 239 1.7 6.1 0.00 0.00 0.00 18 1012.9
20260506234403 81 338 1.7 6.1 0.00 0.00 0.00 18 1012.8
20260506233904 81 324 2.6 6.1 0.00 0.00 0.00 18 1012.8
20260506232903 81 210 1.7 6.1 0.00 0.00 0.00 18 1012.8
20260506232403 81 215 2.6 7.8 0.00 0.00 0.00 18 1012.9
20260506230903 82 198 1.7 6.1 0.00 0.00 0.00 18 1013.0
20260506230403 82 240 1.7 6.1 0.00 0.00 0.00 18 1013.1
20260506225403 82 220 2.6 7.0 0.00 0.00 0.00 18 1013.2
20260506224903 81 266 0.9 7.0 0.00 0.00 0.00 19 1013.2
20260506224403 82 200 3.5 7.0 0.00 0.00 0.00 19 1013.2
20260506223404 82 228 2.6 10.4 0.00 0.00 0.00 18 1013.3
20260506222903 82 236 2.6 7.0 0.00 0.00 0.00 19 1013.4
20260506222403 82 239 1.7 8.7 0.00 0.00 0.00 18 1013.3
20260506221903 82 267 1.7 8.7 0.00 0.00 0.00 19 1013.5
20260506220903 82 227 3.5 10.4 0.00 0.00 0.00 19 1013.6
20260506220403 82 230 2.6 10.4 0.00 0.00 0.00 19 1013.6
20260506215904 82 195 2.6 7.8 0.00 0.00 0.00 19 1013.6
20260506215404 82 218 1.7 8.7 0.00 0.00 0.00 19 1013.6
20260506214403 81 165 2.6 7.0 0.00 0.00 0.00 20 1013.8
20260506213903 81 232 2.6 7.0 0.00 0.00 0.00 19 1013.8
20260506213403 82 226 2.6 7.0 0.00 0.00 0.00 20 1013.9
20260506212903 82 283 1.7 10.4 0.00 0.00 0.00 21 1014.0
20260506212404 82 352 4.3 10.4 0.00 0.00 0.00 20 1014.0
20260506210903 82 356 1.7 8.7 0.00 0.00 0.00 21 1014.2
20260506210403 81 175 0.9 10.4 0.00 0.00 0.00 22 1014.3
20260506205903 81 20 2.6 10.4 0.00 0.00 0.00 21 1014.3
20260506204903 80 202 2.6 7.0 0.00 0.00 0.00 23 1014.3
20260506204403 80 213 1.7 7.8 0.00 0.00 0.00 23 1014.4
20260506203903 80 199 1.7 7.8 0.00 0.00 0.00 24 1014.5
20260506203403 80 274 2.6 7.0 0.00 0.00 0.00 22 1014.5
20260506202903 81 211 2.6 7.0 0.00 0.00 0.00 22 1014.6
20260506202404 80 227 4.3 7.0 0.00 0.00 0.00 23 1014.6
20260506201903 80 280 1.7 7.0 0.00 0.00 0.00 24 1014.6
20260506201403 79 226 2.6 7.8 0.00 0.00 0.00 24 1014.7
20260506200903 80 232 4.3 8.7 0.00 0.00 0.00 23 1014.7
20260506200403 80 213 2.6 8.7 0.00 0.00 0.00 24 1014.8
20260506195903 78 190 1.7 8.7 0.00 0.00 0.00 24 1014.9
20260506195403 78 210 1.7 8.7 0.00 0.00 0.00 25 1014.8
20260506194903 79 233 1.7 5.2 0.00 0.00 0.00 25 1014.9
20260506194404 78 255 0.9 5.2 0.00 0.00 0.00 24 1015.0
20260506193903 80 46 1.7 7.0 0.00 0.00 0.00 25 1015.1
20260506193403 79 306 2.6 7.0 0.00 0.00 0.00 24 1015.1
20260506192904 77 211 2.6 7.8 0.00 0.00 0.00 25 1015.1
20260506192404 77 321 2.6 8.7 0.00 0.00 0.00 25 1015.3
20260506191403 78 21 1.7 4.3 0.00 0.00 0.00 26 1015.4
20260506190903 77 199 0.9 5.2 0.00 0.00 0.00 26 1015.4
20260506185403 76 207 2.6 7.0 0.00 0.00 0.00 26 1015.5
20260506184903 76 229 2.6 6.1 0.00 0.00 0.00 28 1015.7
20260506184403 74 245 0.9 4.3 0.00 0.00 0.00 29 1015.7
20260506183904 75 144 1.7 8.7 0.00 0.00 0.00 28 1015.8
20260506183403 76 218 3.5 8.7 0.00 0.00 0.00 27 1015.8
20260506182903 76 246 1.7 6.1 0.00 0.00 0.00 30 1015.9
20260506181903 75 40 1.7 4.3 0.00 0.00 0.00 29 1016.1
20260506181404 74 231 2.6 5.2 0.00 0.00 0.00 30 1016.1
20260506180904 75 208 2.6 5.2 0.00 0.00 0.00 31 1016.2
20260506180403 73 277 0.9 6.1 0.00 0.00 0.00 31 1016.3
20260506175903 75 305 1.7 6.1 0.00 0.00 0.00 30 1016.3
20260506175403 73 296 1.7 6.1 0.00 0.00 0.00 32 1016.3
20260506174404 73 131 1.7 6.1 0.00 0.00 0.00 31 1016.1
20260506173403 73 9 1.7 5.2 0.00 0.00 0.00 33 1016.2
20260506172903 73 277 1.7 2.6 0.00 0.00 0.00 33 1016.2
20260506171904 73 232 0.9 5.2 0.00 0.00 0.00 33 1016.2
20260506171403 72 235 0.9 4.3 0.00 0.00 0.00 33 1016.2
20260506170903 72 304 1.7 2.6 0.00 0.00 0.00 34 1016.3
20260506170404 71 79 0.9 5.2 0.00 0.00 0.00 34 1016.3
20260506165403 72 225 1.7 2.6 0.00 0.00 0.00 36 1016.3
20260506164903 71 281 0.9 2.6 0.00 0.00 0.00 35 1016.2
20260506164403 69 9 0.0 4.3 0.00 0.00 0.00 37 1016.2
20260506163903 69 235 0.9 4.3 0.00 0.00 0.00 38 1016.2
20260506162903 70 32 0.9 2.6 0.00 0.00 0.00 35 1016.2
20260506162403 70 307 1.7 2.6 0.00 0.00 0.00 37 1016.2
20260506161903 69 35 0.9 2.6 0.00 0.00 0.00 38 1016.1
20260506161403 68 341 0.9 2.6 0.00 0.00 0.00 39 1016.1
20260506160903 68 9 0.9 2.6 0.00 0.00 0.00 39 1016.1
20260506160403 68 91 1.7 2.6 0.00 0.00 0.00 40 1016.1
20260506155903 67 79 0.9 4.3 0.00 0.00 0.00 41 1016.1
20260506155403 67 209 0.9 4.3 0.00 0.00 0.00 42 1016.0
20260506154903 67 71 1.7 2.6 0.00 0.00 0.00 42 1016.0
20260506154404 66 274 0.0 2.6 0.00 0.00 0.00 43 1015.9
20260506153904 66 31 1.7 2.6 0.00 0.00 0.00 43 1016.0
20260506153403 65 191 0.9 2.6 0.00 0.00 0.00 45 1016.1
20260506152903 65 56 1.7 2.6 0.00 0.00 0.00 49 1016.1
20260506151404 64 237 0.9 2.6 0.00 0.00 0.00 48 1016.1
20260506150903 63 131 0.9 2.6 0.00 0.00 0.00 49 1016.1
20260506150403 63 235 0.9 2.6 0.00 0.00 0.00 50 1016.1
20260506145903 63 107 0.0 1.7 0.00 0.00 0.00 50 1016.1
20260506144903 62 112 0.9 2.6 0.00 0.00 0.00 52 1016.0
20260506144403 62 142 0.9 2.6 0.00 0.00 0.00 52 1016.0
20260506143904 61 106 0.9 2.6 0.00 0.00 0.00 52 1016.0
20260506143403 61 131 0.9 2.6 0.00 0.00 0.00 52 1016.0
20260506142904 61 110 0.9 2.6 0.00 0.00 0.00 53 1016.0
20260506142403 60 151 0.9 2.6 0.00 0.00 0.00 53 1016.1
20260506141904 59 79 0.9 2.6 0.00 0.00 0.00 54 1016.0
20260506141403 59 127 0.9 2.6 0.00 0.00 0.00 55 1016.1
20260506140903 58 104 1.7 2.6 0.00 0.00 0.00 56 1016.0
20260506140403 58 105 0.9 2.6 0.00 0.00 0.00 57 1015.9
20260506135903 58 164 0.9 1.7 0.00 0.00 0.00 58 1015.9
20260506135403 58 107 0.9 2.6 0.00 0.00 0.00 58 1015.9
20260506134903 57 117 0.9 2.6 0.00 0.00 0.00 59 1015.9
20260506134403 57 78 0.0 0.9 0.00 0.00 0.00 62 1015.9
20260506133903 56 76 0.0 0.0 0.00 0.00 0.00 65 1015.8
20260506133403 55 75 0.0 0.0 0.00 0.00 0.00 66 1015.8
20260506132903 55 75 0.0 0.0 0.00 0.00 0.00 68 1015.8
20260506132405 54 75 0.0 0.0 0.00 0.00 0.00 68 1015.6
20260506131403 53 120 0.0 0.0 0.00 0.00 0.00 70 1015.4
20260506130903 52 125 0.0 0.9 0.00 0.00 0.00 72 1015.4
20260506130404 52 141 0.0 0.9 0.00 0.00 0.00 72 1015.2
20260506125903 52 199 0.0 0.9 0.00 0.00 0.00 73 1015.4
20260506125403 52 217 0.0 0.9 0.00 0.00 0.00 73 1015.4
20260506124903 52 217 0.0 0.0 0.00 0.00 0.00 73 1015.3
20260506124404 52 217 0.0 0.9 0.00 0.00 0.00 72 1015.4
20260506123403 53 217 0.0 0.9 0.00 0.00 0.00 72 1015.2
20260506122904 53 217 0.0 0.9 0.00 0.00 0.00 72 1015.2
20260506122403 53 217 0.0 0.0 0.00 0.00 0.00 72 1015.1
20260506121903 53 217 0.0 0.0 0.00 0.00 0.00 71 1015.1
20260506121403 53 217 0.0 0.0 0.00 0.00 0.00 71 1015.1
20260506120903 53 217 0.0 1.7 0.00 0.00 0.00 70 1015.1
20260506120403 54 217 0.9 1.7 0.00 0.00 0.00 69 1015.0
20260506115903 54 355 0.0 0.0 0.00 0.00 0.00 68 1014.9
20260506115403 55 355 0.0 0.9 0.00 0.00 0.00 67 1014.9
20260506114903 55 355 0.0 0.9 0.00 0.00 0.00 66 1014.8
20260506114403 55 355 0.0 2.6 0.00 0.00 0.00 66 1014.8
20260506113903 55 355 0.0 2.6 0.00 0.00 0.00 66 1014.8
20260506112903 55 5 0.0 1.7 0.00 0.00 0.00 66 1014.8
20260506112403 55 5 0.0 1.7 0.00 0.00 0.00 66 1014.7
20260506111904 55 5 0.0 0.9 0.00 0.00 0.00 66 1014.7
20260506111404 55 5 0.0 1.7 0.00 0.00 0.00 66 1014.7
20260506110904 56 5 0.0 1.7 0.00 0.01 0.00 65 1014.6
20260506105904 56 5 0.9 1.7 0.00 0.01 0.00 63 1014.5
20260506105404 57 5 0.0 1.7 0.00 0.01 0.00 63 1014.5
20260506104903 57 348 0.0 2.6 0.00 0.01 0.00 62 1014.5
20260506104403 57 338 0.9 2.6 0.00 0.01 0.00 62 1014.4
20260506103903 57 333 0.9 2.6 0.00 0.02 0.00 62 1014.4
20260506103403 56 349 0.9 1.7 0.00 0.02 0.00 62 1014.3
20260506102905 56 354 0.9 1.7 0.00 0.02 0.00 62 1014.3
20260506102403 56 5 0.9 1.7 0.00 0.02 0.00 62 1014.3
20260506101903 56 6 0.0 0.9 0.00 0.02 0.00 62 1014.2
20260506101403 55 5 0.0 1.7 0.00 0.03 0.00 62 1014.2
20260506100904 55 5 0.0 1.7 0.00 0.03 0.00 63 1014.1
20260506100403 55 5 0.9 0.9 0.00 0.03 0.00 62 1014.2
20260506095903 55 345 0.0 0.0 0.00 0.03 0.00 62 1014.1
20260506094903 55 345 0.0 0.0 0.00 0.03 0.00 61 1014.0
20260506094403 55 345 0.0 0.0 0.00 0.03 0.00 60 1014.0
20260506093903 55 345 0.0 0.0 0.00 0.03 0.00 60 1014.0
20260506093403 55 345 0.0 0.0 0.00 0.03 0.00 60 1014.0
20260506092904 55 345 0.0 0.0 0.00 0.03 0.00 60 1014.0
20260506091404 56 345 0.0 0.0 0.00 0.03 0.00 59 1013.9
20260506090404 56 345 0.0 0.0 0.00 0.03 0.00 58 1013.9
20260506084903 57 345 0.0 0.0 0.00 0.04 0.00 55 1014.1
20260506083903 57 345 0.0 0.0 0.00 0.04 0.00 54 1014.2
20260506083404 57 345 0.0 0.0 0.00 0.04 0.00 54 1014.2
20260506082903 58 345 0.0 0.0 0.00 0.04 0.00 52 1014.2
20260506082404 59 345 0.0 0.0 0.00 0.05 0.00 50 1014.2
20260506081404 59 345 0.0 0.9 0.00 0.06 0.00 47 1014.2
20260506080903 59 345 0.0 0.9 0.00 0.07 0.00 47 1014.2
20260506080403 60 342 0.0 1.7 0.00 0.07 0.00 47 1014.2
20260506073403 60 343 0.0 0.9 0.00 0.09 0.00 48 1014.2
20260506072903 60 343 0.0 0.9 0.00 0.10 0.00 47 1014.2
20260506072404 60 343 0.0 0.9 0.00 0.11 0.00 46 1014.2
20260506071903 60 343 0.0 0.9 0.00 0.11 0.00 46 1014.2
20260506071404 60 348 0.0 0.9 0.00 0.11 0.00 45 1014.2
20260506070903 61 344 0.0 0.9 0.00 0.11 0.00 46 1014.2
20260506062403 63 298 0.0 1.7 0.00 0.15 0.12 40 1013.9
20260506061903 63 296 0.0 1.7 0.00 0.15 0.12 40 1013.9
20260506061403 64 275 0.0 1.7 0.00 0.15 0.12 39 1014.0
20260506060404 64 291 0.0 2.6 0.00 0.15 0.12 38 1013.8
20260506051404 66 247 0.9 2.6 0.00 0.17 0.12 37 1013.6
20260506050904 66 267 0.9 5.2 0.00 0.17 0.12 37 1013.5
20260506050404 66 230 0.9 5.2 0.00 0.17 0.12 37 1013.4
20260506044904 66 239 2.6 6.1 0.00 0.17 0.12 38 1013.3
20260506044403 66 235 1.7 2.6 0.00 0.17 0.12 39 1013.3
20260506043903 66 237 1.7 2.6 0.00 0.17 0.12 39 1013.3
20260506043403 66 233 0.9 2.6 0.00 0.17 0.12 38 1013.2
20260506042403 67 246 0.9 2.6 0.00 0.17 0.12 38 1013.2
20260506041903 67 244 0.9 2.6 0.00 0.18 0.12 38 1013.1
20260506041403 67 243 0.9 1.7 0.00 0.18 0.12 38 1013.1
20260506040904 67 134 0.0 1.7 0.00 0.18 0.12 37 1013.0